TimePDT,TemperatureF,Dew PointF,Humidity,Sea Level PressureIn,VisibilityMPH,Wind Direction,Wind SpeedMPH,Gust SpeedMPH,PrecipitationIn,Events,Conditions,WindDirDegrees,DateUTC
12:56 AM,36.0,17.1,46,29.93,10.0,South,3.5,-,N/A,,Clear,190,2012-10-09 07:56:00
1:56 AM,37.0,16.0,42,29.94,10.0,Calm,Calm,-,N/A,,Clear,0,2012-10-09 08:56:00
2:56 AM,34.0,15.1,46,29.95,10.0,Calm,Calm,-,N/A,,Clear,0,2012-10-09 09:56:00
3:56 AM,36.0,17.1,46,29.95,10.0,Calm,Calm,-,N/A,,Clear,0,2012-10-09 10:56:00
4:56 AM,35.1,17.1,48,29.96,7.0,ENE,5.8,-,N/A,,Clear,60,2012-10-09 11:56:00
5:56 AM,33.1,14.0,46,29.99,10.0,East,4.6,-,N/A,,Clear,80,2012-10-09 12:56:00
6:56 AM,33.1,10.9,40,30.02,10.0,NNE,4.6,-,N/A,,Clear,30,2012-10-09 13:56:00
7:56 AM,37.0,12.9,37,30.05,9.0,Calm,Calm,-,N/A,,Clear,0,2012-10-09 14:56:00
8:56 AM,44.1,12.9,28,30.05,10.0,Calm,Calm,-,N/A,,Clear,0,2012-10-09 15:56:00
9:56 AM,50.0,14.0,24,30.04,10.0,Calm,Calm,-,N/A,,Clear,0,2012-10-09 16:56:00
10:56 AM,61.0,16.0,17,29.99,10.0,Calm,Calm,-,N/A,,Clear,0,2012-10-09 17:56:00
11:56 AM,64.9,16.0,15,29.97,10.0,Calm,Calm,-,N/A,,Clear,0,2012-10-09 18:56:00
12:56 PM,69.1,17.1,14,29.95,10.0,NNW,3.5,-,N/A,,Clear,330,2012-10-09 19:56:00
1:56 PM,72.0,18.0,13,29.92,10.0,Variable,3.5,-,N/A,,Clear,0,2012-10-09 20:56:00
2:56 PM,75.0,19.0,12,29.91,10.0,Variable,3.5,-,N/A,,Clear,0,2012-10-09 21:56:00
3:56 PM,77.0,19.0,11,29.89,10.0,Variable,3.5,-,N/A,,Clear,0,2012-10-09 22:56:00
4:56 PM,73.9,19.0,13,29.88,10.0,North,4.6,-,N/A,,Clear,10,2012-10-09 23:56:00
5:56 PM,68.0,21.9,17,29.90,10.0,East,3.5,-,N/A,,Clear,100,2012-10-10 00:56:00
6:56 PM,62.1,21.9,21,29.93,10.0,Calm,Calm,-,N/A,,Clear,0,2012-10-10 01:56:00
7:56 PM,57.0,18.0,22,29.95,10.0,Calm,Calm,-,N/A,,Clear,0,2012-10-10 02:56:00
8:56 PM,55.0,21.0,27,29.96,9.0,East,5.8,-,N/A,,Clear,80,2012-10-10 03:56:00
9:56 PM,53.1,17.1,24,29.95,9.0,ESE,6.9,-,N/A,,Clear,110,2012-10-10 04:56:00
10:56 PM,57.0,17.1,21,29.92,10.0,ENE,6.9,-,N/A,,Clear,60,2012-10-10 05:56:00
11:56 PM,55.0,15.1,21,29.92,10.0,Calm,Calm,-,N/A,,Clear,0,2012-10-10 06:56:00